Total_Precipitation_Accumulation
0.74 0.88 0.87 0.75 0.75 0.72 0.79 0.93 1.04 0.92 0.85 0.92 1.00 1.08 1.24 1.31 1.37 1.25 1.08 1.04 0.90 0.77 0.70 0.67 0.68 0.73 0.78 0.81 0.85 0.92 0.99 1.03 1.12 1.30 1.56 1.81 2.06 2.30
0.88 0.95 0.96 0.91 0.90 0.86 0.87 0.96 1.13 1.14 1.04 0.97 1.04 1.06 1.10 1.01 1.09 1.03 1.00 1.02 0.88 0.79 0.74 0.70 0.65 0.65 0.66 0.72 0.74 0.73 0.74 0.74 0.74 0.79 0.86 0.97 1.13 1.40
0.90 0.92 0.93 1.00 1.06 1.08 1.13 1.14 1.18 1.32 1.27 1.06 1.12 1.25 1.22 1.06 0.97 0.94 0.91 0.88 0.82 0.83 0.78 0.74 0.70 0.65 0.61 0.59 0.62 0.65 0.63 0.63 0.62 0.61 0.60 0.62 0.61 0.65
0.95 1.04 1.00 1.02 1.11 1.18 1.31 1.31 1.33 1.52 1.52 1.33 1.32 1.39 1.31 1.19 1.08 0.99 0.87 0.80 0.77 0.84 0.80 0.75 0.69 0.63 0.61 0.58 0.55 0.54 0.54 0.54 0.54 0.53 0.52 0.50 0.50 0.50
1.13 1.18 1.17 1.27 1.26 1.29 1.36 1.34 1.41 1.59 1.69 1.59 1.54 1.63 1.63 1.40 1.24 1.07 0.96 0.95 0.83 0.83 0.83 0.78 0.73 0.68 0.63 0.62 0.61 0.57 0.52 0.50 0.47 0.49 0.51 0.52 0.52 0.50
1.26 1.28 1.29 1.37 1.44 1.49 1.51 1.60 1.70 1.83 1.94 1.88 1.85 1.94 1.94 1.79 1.57 1.29 1.20 1.13 1.01 0.88 0.90 0.85 0.80 0.74 0.67 0.61 0.57 0.57 0.56 0.54 0.51 0.48 0.48 0.49 0.50 0.51
1.21 1.27 1.25 1.29 1.36 1.49 1.52 1.66 1.83 2.01 2.16 2.21 2.22 2.37 2.30 2.11 1.84 1.51 1.42 1.32 1.18 1.02 0.93 0.82 0.76 0.68 0.64 0.62 0.60 0.58 0.56 0.53 0.52 0.51 0.48 0.45 0.42 0.41
1.32 1.36 1.31 1.25 1.24 1.29 1.38 1.50 1.64 1.82 2.05 2.26 2.37 2.44 2.47 2.31 2.10 1.83 1.50 1.25 1.13 1.02 0.98 0.90 0.78 0.72 0.64 0.59 0.65 0.61 0.57 0.54 0.53 0.51 0.49 0.47 0.43 0.39
1.31 1.32 1.20 1.09 1.13 1.08 1.15 1.21 1.25 1.37 1.50 1.73 1.95 2.03 2.18 2.25 2.12 1.82 1.53 1.30 1.11 1.04 1.03 0.95 0.87 0.82 0.73 0.70 0.76 0.65 0.58 0.56 0.52 0.50 0.50 0.50 0.50 0.48
1.16 1.19 1.18 1.08 1.05 1.09 1.09 1.04 0.98 0.99 1.06 1.12 1.27 1.50 1.70 1.93 2.00 1.89 1.79 1.53 1.25 1.04 0.99 0.94 0.84 0.79 0.75 0.72 0.77 0.70 0.63 0.59 0.56 0.53 0.51 0.49 0.48 0.47
1.18 1.18 1.19 1.11 1.12 1.02 1.00 0.98 0.93 0.89 0.89 0.95 1.03 1.21 1.44 1.61 1.80 1.81 1.73 1.62 1.38 1.11 0.96 0.92 0.83 0.80 0.77 0.70 0.69 0.69 0.62 0.61 0.58 0.55 0.52 0.50 0.48 0.46
1.17 1.18 1.19 1.09 1.11 1.03 1.04 1.07 0.99 0.91 0.89 0.87 0.90 0.98 1.06 1.30 1.54 1.55 1.49 1.47 1.35 1.15 0.93 0.89 0.83 0.83 0.85 0.70 0.58 0.55 0.54 0.59 0.62 0.58 0.55 0.52 0.50 0.42
1.07 1.05 1.09 1.07 0.95 0.87 0.84 0.88 0.91 0.90 0.92 0.91 0.89 0.92 0.99 1.09 1.28 1.37 1.39 1.32 1.23 1.08 0.89 0.89 0.87 0.83 0.78 0.68 0.58 0.52 0.48 0.47 0.48 0.51 0.54 0.55 0.52 0.42
1.04 1.04 1.07 1.04 0.90 0.80 0.70 0.70 0.72 0.69 0.76 0.83 0.86 0.85 0.88 0.94 1.08 1.30 1.43 1.39 1.22 1.07 1.00 0.96 0.87 0.81 0.73 0.62 0.55 0.50 0.49 0.46 0.41 0.39 0.42 0.55 0.59 0.58
0.96 1.13 1.12 0.99 0.92 0.85 0.78 0.70 0.64 0.59 0.66 0.74 0.72 0.73 0.74 0.81 0.95 1.23 1.47 1.60 1.46 1.19 1.06 1.00 0.94 0.87 0.81 0.65 0.50 0.43 0.43 0.42 0.39 0.38 0.39 0.45 0.51 0.56
0.98 1.13 1.18 1.15 1.08 1.00 0.89 0.72 0.58 0.56 0.59 0.64 0.69 0.71 0.79 0.87 0.97 1.05 1.27 1.47 1.53 1.36 1.14 1.05 0.98 0.98 0.89 0.71 0.58 0.46 0.38 0.37 0.36 0.39 0.43 0.44 0.47 0.53
1.11 1.25 1.37 1.39 1.35 1.24 1.07 0.91 0.78 0.73 0.70 0.70 0.79 0.81 0.85 0.87 0.89 0.92 1.07 1.23 1.25 1.17 1.10 1.08 1.09 1.07 1.05 0.95 0.73 0.51 0.42 0.36 0.35 0.41 0.50 0.49 0.48 0.51
0.91 1.12 1.38 1.45 1.46 1.43 1.32 1.14 1.00 0.91 0.86 0.85 0.87 0.88 0.87 0.91 0.94 0.98 1.05 1.16 1.16 1.07 1.03 1.00 1.08 1.16 1.10 1.01 0.80 0.61 0.48 0.41 0.37 0.44 0.50 0.52 0.48 0.49
0.61 0.83 1.13 1.34 1.42 1.45 1.38 1.20 1.04 0.99 1.01 0.96 0.93 0.91 0.90 0.91 0.97 1.01 1.03 1.09 1.13 1.07 0.99 1.00 1.05 1.11 1.04 0.83 0.67 0.59 0.57 0.51 0.52 0.50 0.50 0.52 0.48 0.44
0.48 0.64 0.89 1.16 1.27 1.33 1.32 1.26 1.15 1.10 1.10 1.05 1.01 0.98 0.96 0.96 0.95 0.98 1.01 1.04 1.06 1.10 1.02 0.96 0.97 0.96 0.92 0.83 0.74 0.65 0.59 0.64 0.67 0.62 0.54 0.56 0.56 0.57
0.60 0.65 0.81 1.04 1.20 1.29 1.31 1.29 1.23 1.20 1.19 1.18 1.14 1.10 1.06 1.08 1.03 0.96 0.99 1.07 1.10 1.12 1.02 0.83 0.79 0.91 1.06 1.15 1.01 0.74 0.63 0.63 0.72 0.76 0.71 0.71 0.69 0.69
0.77 0.79 0.85 1.00 1.16 1.28 1.31 1.29 1.31 1.30 1.29 1.26 1.22 1.17 1.11 1.11 1.11 1.08 1.09 1.11 1.06 1.02 1.01 0.96 0.99 1.09 1.12 1.08 0.93 0.82 0.74 0.70 0.77 0.81 0.77 0.71 0.68 0.61
0.93 0.90 0.93 1.04 1.14 1.25 1.27 1.24 1.25 1.30 1.28 1.25 1.22 1.20 1.16 1.12 1.12 1.14 1.12 1.14 1.12 1.10 1.16 1.19 1.17 1.12 1.05 1.02 0.96 0.92 0.88 0.82 0.82 0.81 0.70 0.66 0.56 0.50